sat.trackr.live / text

‹ back to catalog

R5-S2

NORAD 60207 · 2024-125E

PAYLOAD ACTIVE UNKNOWN

§ Identity

Operator
Country
US
Launch date
2024-07-04
Launch site
AFWTR
Launch vehicle
Mass (kg)
RCS (m²)

External: N2YO · Heavens-Above · Gunter

§ Orbital elements

Epoch: 2026-09-22T19:43:44.128992Z

Period
93.03 min
Inclination
97.2246°
Eccentricity
0.0013197
Mean motion
15.47835658 rev/d
Perigee alt
414.1 km
Apogee alt
432.0 km
Semi-major
6,801.2 km
B*
2.5714e-4
RAAN
117.5430°
Arg perigee
228.2127°
Mean anomaly
131.7997°
Rev number
12,427

§ Raw data

R5-S21 60207U 24125E   26265.82203853  .00013320  00000+0  25714-3 0  99912 60207  97.2246 117.5430 0013197 228.2127 131.7997 15.47835658124278

JSON: /api/v1/satellites/60207 · /tle

For live sub-satellite position, see the globe view (requires WebGL).

§ Visibility from observer

Set your observer location to see the next 7 days of passes ≥ 10°. The values pass through the URL so the page stays shareable.

No JS? Fill the form by hand. The geolocation button needs JavaScript.

§ Radio — SatNOGS DB

ModeDescriptionDownlinkUplink
FM Mode L - Transmitter 1.621 GHz

1 transmitter · refreshed weekly from db.satnogs.org